Weather observations for the past three days for
Ardmore, Ardmore Municipal Airport
Imperial (Metric)
Date Time (cdt) Wind (mph) Vis. (mi.) Weather Sky Cond. Temperature (ºF) Relative Humidity Wind Chill (°F) Heat Index (°F) Pressure Precipitation (in)
Air Dwpt 6 hour altimeter (in) sea level (mb) 1 hr 3 hr 6 hr
Max. Min.
22 16:50 Calm 10.00 Fair CLR 86 66.2 52% 88 29.96 0.0
22 15:50 N 6 10.00 Fair CLR 82.4 68 62% 85 29.98 0.0
22 14:50 N 7 10.00 Partly Cloudy SCT045 82.4 68 62% 85 30 0.0
22 13:50 Vrbl 7 10.00 Partly Cloudy SCT025 82.4 69.8 66% 86 30.02 0.0
22 12:50 NE 7 10.00 Mostly Cloudy FEW020 SCT025 BKN037 80.6 69.8 70% 84 30.04 0.0
22 11:50 Calm 10.00 Overcast BKN016 OVC032 77 69.8 79% 79 30.05 0.0
22 10:50 Calm 10.00 Overcast OVC012 75.2 71.6 89% 75 30.05 0.0
22 09:50 N 7 10.00 Overcast OVC009 75.2 71.6 89% 75 30.04 0.0
22 08:50 N 8 10.00 Overcast OVC005 73.4 71.6 94% 30.03 0.0
22 07:50 N 7 10.00 Overcast OVC015 71.6 69.8 94% 30.02 0.0
22 06:35 Calm 10.00 Thunderstorm OVC015 69.8 69.8 100% 30.02 0.0
22 06:15 Calm 10.00 Overcast FEW016 BKN033 OVC040 69.8 68 94% 30.02 0.0
22 05:55 Calm 10.00 Overcast OVC032 69.8 69.8 100% 30.01 0.0
22 05:35 Calm 10.00 Overcast OVC031 69.8 69.8 100% 30.01 0.0
22 05:15 Calm 10.00 Mostly Cloudy BKN030 69.8 69.8 100% 30 0.0
22 04:55 Calm 10.00 Partly Cloudy SCT030 SCT037 69.8 69.8 100% 30 0.0
22 04:35 Calm 10.00 Mostly Cloudy BKN030 BKN036 71.6 69.8 94% 30 0.0
22 04:15 Calm 10.00 Mostly Cloudy BKN030 71.6 69.8 94% 30.01 0.0
22 03:55 Calm 10.00 Mostly Cloudy BKN027 BKN110 71.6 69.8 94% 30 0.0
22 03:35 Calm 10.00 Mostly Cloudy FEW009 SCT026 BKN110 71.6 69.8 94% 30 0.0
22 03:15 Calm 10.00 Mostly Cloudy BKN100 71.6 69.8 94% 30 0.0
22 02:55 Calm 10.00 Mostly Cloudy BKN090 71.6 69.8 94% 30 0.0
22 02:35 Calm 10.00 Fair CLR 71.6 69.8 94% 29.99 0.0
22 02:15 Calm 10.00 Fair CLR 71.6 69.8 94% 30 0.0
22 01:55 Calm 10.00 Partly Cloudy FEW025 SCT040 SCT100 71.6 69.8 94% 30.01 0.0
22 01:35 Calm 10.00 Mostly Cloudy FEW025 SCT040 BKN100 71.6 69.8 94% 30.02 0.0
22 01:15 Calm 10.00 Mostly Cloudy BKN100 71.6 69.8 94% 30.02 0.0
22 00:55 Calm 10.00 Partly Cloudy SCT110 71.6 69.8 94% 30.03 0.0
22 00:35 NE 5 10.00 Partly Cloudy FEW037 FEW065 SCT100 71.6 69.8 94% 30.03 0.0
22 00:15 NE 6 10.00 Overcast FEW015 BKN055 OVC100 71.6 69.8 94% 30.04 0.0
21 23:55 NE 10 10.00 Overcast OVC050 71.6 69.8 94% 30.04 0.0
21 23:35 Calm 10.00 Mostly Cloudy BKN049 BKN075 BKN095 71.6 69.8 94% 30.04 0.0
21 23:15 Calm 10.00 Partly Cloudy SCT055 SCT075 SCT095 73.4 69.8 89% 30.03 0.0
21 22:55 Calm 10.00 A Few Clouds FEW100 73.4 69.8 89% 30.03 0.0
21 22:35 Calm 10.00 Partly Cloudy FEW044 SCT100 73.4 69.8 89% 30.03 0.0
21 22:15 Calm 10.00 Mostly Cloudy FEW031 SCT039 BKN045 73.4 69.8 89% 30.02 0.0
21 21:55 E 6 10.00 Mostly Cloudy FEW028 BKN045 BKN050 73.4 69.8 89% 30.02 0.0
21 21:35 E 7 10.00 Mostly Cloudy BKN048 BKN060 BKN085 73.4 69.8 89% 30.02 0.0
21 21:15 E 8 10.00 Mostly Cloudy FEW020 SCT035 BKN048 75.2 71.6 89% 75 30.01 0.0
21 20:55 Calm 10.00 Partly Cloudy SCT060 75.2 73.4 94% 74 30 0.0
21 20:35 Calm 10.00 A Few Clouds FEW040 75.2 73.4 94% 74 29.99 0.0
21 20:15 Calm 10.00 Partly Cloudy SCT080 77 73.4 89% 78 29.98 0.0
21 19:55 Calm 9.00 A Few Clouds FEW080 77 73.4 89% 78 29.99 0.0
21 19:35 Calm 10.00 Fair CLR 77 73.4 89% 78 29.98 0.0
21 19:15 Calm 10.00 Fair CLR 77 73.4 89% 78 29.97 0.0
21 18:55 Calm 10.00 Fair CLR 75.2 71.6 89% 75 29.98 0.0
21 18:35 NE 7 10.00 A Few Clouds FEW050 75.2 71.6 89% 75 29.97 0.0
21 18:15 NE 8 G 17 5.00 Light Rain Fog/Mist FEW029 SCT039 BKN045 75.2 71.6 89% 75 29.96 0.0
21 17:55 N 12 10.00 Thunderstorm in Vicinity BKN039 BKN050 OVC080 77 68 74% 79 29.98 0.0
21 17:35 Calm 10.00 Thunderstorm in Vicinity FEW050 SCT060 SCT080 84.2 69.8 62% 88 29.97 0.0
21 17:15 SE 5 10.00 Fair CLR 86 69.8 59% 91 29.95 0.0
21 16:55 Calm 10.00 Fair CLR 84.2 69.8 62% 88 29.96 0.0
21 15:50 Calm 10.00 A Few Clouds FEW048 84.2 69.8 62% 88 29.97 0.0
21 14:50 Calm 10.00 Partly Cloudy FEW040 SCT046 SCT070 84.2 69.8 62% 88 29.99 0.0
21 13:50 SE 7 G 14 10.00 Overcast FEW025 BKN037 OVC045 82.4 71.6 70% 87 30.02 0.0
21 12:50 SE 10 10.00 Overcast SCT026 BKN036 OVC070 82.4 71.6 70% 87 30.03 0.0
21 11:50 SE 9 10.00 Partly Cloudy SCT019 82.4 71.6 70% 87 30.04 0.0
21 10:50 E 6 10.00 Partly Cloudy SCT016 78.8 71.6 79% 82 30.04 0.0
21 09:50 Calm 10.00 Fair CLR 75.2 71.6 89% 75 30.05 0.0
21 08:50 Calm 10.00 Overcast BKN080 OVC095 73.4 69.8 89% 30.05 0.0
21 07:55 Calm 9.00 Overcast BKN080 OVC100 71.6 69.8 94% 30.04 0.0
21 07:50 Calm 10.00 Overcast BKN080 OVC100 71.6 69.8 94% 30.04 0.0
21 07:35 Calm 10.00 Mostly Cloudy FEW060 BKN075 BKN085 71.6 69.8 94% 30.03 0.0
21 07:15 SE 7 10.00 Thunderstorm in Vicinity BKN080 BKN095 71.6 69.8 94% 30.03 0.0
21 06:55 Calm 10.00 Partly Cloudy SCT080 71.6 69.8 94% 30.03 0.0
21 06:50 Calm 10.00 Mostly Cloudy BKN080 71.6 69.8 94% 30.02 0.0
21 06:35 Calm 10.00 Thunderstorm in Vicinity FEW085 FEW110 71.6 69.8 94% 30.02 0.0
21 06:15 Calm 10.00 Thunderstorm in Vicinity SCT070 SCT095 BKN120 71.6 69.8 94% 30.02 0.0
21 05:35 Calm 9.00 Thunderstorm in Vicinity Rain FEW005 FEW032 OVC075 71.6 71.6 100% 30.01 0.0
21 05:15 Calm 9.00 Thunderstorm FEW030 FEW050 OVC070 73.4 69.8 89% 30 0.0
21 04:55 Calm 10.00 Overcast OVC075 73.4 69.8 89% 29.99 0.0
21 04:35 Calm 10.00 Overcast BKN080 OVC095 73.4 69.8 89% 29.99 0.0
21 04:15 Calm 10.00 Overcast FEW047 BKN080 OVC110 71.6 69.8 94% 30 0.0
21 03:55 Calm 9.00 Overcast FEW033 BKN049 OVC090 73.4 69.8 89% 29.99 0.0
21 03:35 Calm 8.00 Light Rain SCT034 BKN048 OVC110 73.4 69.8 89% 30 0.0
21 03:15 Calm 8.00 Thunderstorm in Vicinity Rain SCT031 BKN070 OVC110 73.4 69.8 89% 30.02 0.0
21 02:55 Calm 10.00 Light Rain FEW032 BKN070 OVC100 75.2 68 78% 76 30.02 0.0
21 02:35 Calm 10.00 Thunderstorm in Vicinity FEW034 OVC070 75.2 69.8 83% 75 30.02 0.0
21 02:15 Calm 10.00 Thunderstorm in Vicinity OVC070 77 68 74% 79 30.02 0.0
21 01:55 Calm 10.00 Overcast BKN070 OVC110 75.2 68 78% 76 30.02 0.0
21 01:35 Calm 10.00 Overcast OVC070 77 68 74% 79 30.02 0.0
21 01:15 Calm 10.00 Overcast FEW046 OVC070 75.2 68 78% 76 30.02 0.0
21 00:55 Calm 10.00 Overcast FEW047 FEW060 OVC070 77 68 74% 79 30.02 0.0
21 00:35 Calm 10.00 Mostly Cloudy FEW060 SCT075 BKN110 75.2 68 78% 76 30.01 0.0
21 00:15 Calm 10.00 Partly Cloudy FEW070 SCT110 77 68 74% 79 30.02 0.0
20 23:55 Calm 10.00 Partly Cloudy FEW075 SCT120 77 68 74% 79 30.02 0.0
20 23:35 Calm 10.00 Mostly Cloudy BKN075 BKN120 77 68 74% 79 30.02 0.0
20 23:15 Calm 10.00 Mostly Cloudy BKN075 77 68 74% 79 30.02 0.0
20 22:55 Calm 10.00 Mostly Cloudy BKN075 77 68 74% 79 30.01 0.0
20 22:35 Calm 10.00 Overcast OVC075 77 68 74% 79 30.01 0.0
20 22:15 Calm 10.00 Mostly Cloudy BKN080 78.8 68 70% 81 30.01 0.0
20 21:55 Calm 10.00 Fair CLR 78.8 68 70% 81 30 0.0
20 21:35 Calm 10.00 Fair CLR 78.8 68 70% 81 30 0.0
20 21:15 Calm 10.00 A Few Clouds FEW090 78.8 68 70% 81 29.99 0.0
20 20:55 Calm 10.00 Fair CLR 80.6 68 66% 83 29.98 0.0
20 20:35 Calm 10.00 Fair CLR 82.4 68 62% 85 29.97 0.0
20 20:15 E 6 10.00 Fair CLR 84.2 66.2 55% 87 29.97 0.0
20 19:55 E 8 10.00 Fair CLR 86 68 55% 89 29.98 0.0
20 19:35 E 7 10.00 Fair CLR 86 68 55% 89 29.97 0.0
20 19:15 E 5 10.00 Fair CLR 86 66.2 52% 88 29.97 0.0
20 18:55 Calm 10.00 Fair CLR 86 66.2 52% 88 29.97 0.0
20 18:35 Calm 10.00 Fair CLR 86 68 55% 89 29.97 0.0
20 18:15 Calm 10.00 Fair CLR 86 66.2 52% 88 29.98 0.0
20 17:55 SE 5 10.00 Fair CLR 87.8 66.2 49% 90 29.98 0.0
20 17:35 Calm 10.00 Fair CLR 87.8 66.2 49% 90 29.98 0.0
20 17:15 SE 5 10.00 Fair CLR 86 66.2 52% 88 29.98 0.0
20 16:55 Calm 10.00 Fair CLR 87.8 66.2 49% 90 29.99 0.0
20 15:50 Calm 10.00 Fair CLR 86 64.4 49% 87 30.01 0.0
20 14:50 Calm 10.00 Fair CLR 86 66.2 52% 88 30.03 0.0
20 13:50 Calm 10.00 Fair CLR 82.4 66.2 58% 85 30.05 0.0
20 12:50 Calm 10.00 Light Rain CLR 80.6 64.4 58% 82 30.07 0.0
20 11:50 Calm 10.00 Fair CLR 80.6 64.4 58% 82 30.08 0.0
20 10:50 Calm 10.00 Fair CLR 80.6 66.2 62% 83 30.1 0.0
20 09:50 Calm 10.00 Mostly Cloudy BKN060 77 66.2 69% 79 30.1 0.0
20 08:50 Calm 10.00 Fair CLR 75.2 66.2 74% 77 30.1 0.0
20 07:50 Calm 10.00 Fair CLR 71.6 66.2 83% 30.07 0.0
20 06:50 Calm 10.00 Fair CLR 68 64.4 88% 30.04 0.0
20 06:35 Calm 10.00 Thunderstorm CLR 68 64.4 88% 30.04 0.0
20 06:15 Calm 10.00 Fair CLR 68 64.4 88% 30.04 0.0
20 05:55 Calm 10.00 Fair CLR 68 64.4 88% 30.04 0.0
20 05:35 Calm 10.00 Fair CLR 68 64.4 88% 30.04 0.0
20 05:15 Calm 10.00 Fair CLR 68 64.4 88% 30.03 0.0
20 04:35 Calm 10.00 Fair CLR 69.8 64.4 83% 30.04 0.0
20 04:15 Calm 10.00 Fair CLR 68 64.4 88% 30.04 0.0
20 03:55 Calm 10.00 Fair CLR 69.8 64.4 83% 30.04 0.0
20 03:35 Calm 10.00 Fair CLR 69.8 64.4 83% 30.03 0.0
20 03:15 Calm 10.00 Fair CLR 69.8 64.4 83% 30.03 0.0
20 02:55 Calm 10.00 Fair CLR 69.8 64.4 83% 30.03 0.0
20 02:35 Calm 10.00 Fair CLR 69.8 64.4 83% 30.03 0.0
20 02:15 Calm 10.00 Fair CLR 69.8 64.4 83% 30.02 0.0
20 01:55 Calm 9.00 Fair CLR 68 64.4 88% 30.02 0.0
20 01:35 Calm 10.00 Fair CLR 68 66.2 94% 30.02 0.0
20 01:15 Calm 10.00 Fair CLR 68 64.4 88% 30.01 0.0
20 00:55 Calm 10.00 Fair CLR 69.8 64.4 83% 30.01 0.0
20 00:35 Calm 10.00 Fair CLR 69.8 66.2 88% 30.01 0.0
20 00:15 Calm 10.00 Fair CLR 69.8 64.4 83% 30.01 0.0
19 23:55 Calm 10.00 Fair CLR 71.6 64.4 78% 30.02 0.0
19 23:35 Calm 10.00 Fair CLR 73.4 64.4 74% 30.03 0.0
19 23:15 Calm 10.00 Fair CLR 73.4 64.4 74% 30.04 0.0
19 22:55 Calm 10.00 Fair CLR 75.2 64.4 69% 77 30.04 0.0
19 21:50 Calm 10.00 Fair CLR 78.8 64.4 61% 81 30.02 0.0
19 20:50 N 5 10.00 Fair CLR 80.6 66.2 62% 83 30.01 0.0
19 19:50 Calm 10.00 Fair CLR 86 62.6 46% 87 29.99 0.0
19 18:50 Calm 10.00 Fair CLR 89.6 60.8 38% 90 29.98 0.0
Date Time (cdt) Wind (mph) Vis. (mi.) Weather Sky Cond. Air Dwpt Max. Min. Relative Humidity Wind Chill (°F) Heat Index (°F) altimeter (in) sea level (mb) 1 hr 3 hr 6 hr
6 hour
Temperature (ºF) Pressure Precipitation (in)